Weather History for Mineral Wells, TX

Change the Weather History Date:

Tuesday, February 26, 2013

  Actual Average Record
Temperature  
Mean Temperature 44 °F -  
Max Temperature 55 °F 58 °F 91 °F (2009)
Min Temperature 34 °F 37 °F 21 °F (2002)
Degree Days  
Heating Degree Days 20    
Moisture  
Dew Point 29 °F    
Average Humidity 59    
Maximum Humidity 79    
Minimum Humidity 33    
Precipitation  
Precipitation 0.00 in - - ()
Sea Level Pressure  
Sea Level Pressure 29.84 in    
Wind  
Wind Speed 14 mph (NW)    
Max Wind Speed 23 mph    
Max Gust Speed 37 mph    
Visibility 10 miles    
Events Rain    
Averages and records for this station are not official NWS values.
T = Trace of Precipitation, MM = Missing Value Source: NWS Daily Summary

Daily Weather History Graph

Daily Weather History Graph

Search for Another Location

Airport:

Trip Planner

Search our weather history database for the weather conditions in past years. The results will help you decide how hot, cold, wet, or windy it might be!

Date:

Astronomy

Feb. 26, 2013 Rise Set
Actual Time 7:03 AM CST 6:27 PM CST
Civil Twilight 6:38 AM CST 6:52 PM CST
Nautical Twilight 6:09 AM CST 7:20 PM CST
Astronomical Twilight 5:41 AM CST 7:49 PM CST
Moon 7:38 PM CST (2/26) 7:12 AM CST (2/26)
Length of Visible Light 12h 13m
Length of Day
11h 24m
Full, 99% of the Moon is Illuminated
Feb 26
Full
Mar 4
Last Quarter
Mar 11
New
Mar 19
First Quarter
Mar 27
Full

Hourly Weather History & Observations

Time (CST) Temp. Windchill Dew Point Humidity Pressure Visibility Wind Dir Wind Speed Gust Speed Precip Events Conditions
12:53 AM 39.0 °F 29.3 °F 30.9 °F 73% 29.77 in 10.0 mi WNW 19.6 mph 29.9 mph N/A   Overcast
1:53 AM 37.9 °F 27.3 °F 30.0 °F 73% 29.77 in 10.0 mi NW 21.9 mph 36.8 mph N/A   Overcast
2:53 AM 37.9 °F 27.1 °F 30.0 °F 73% 29.78 in 10.0 mi WNW 23.0 mph 31.1 mph N/A   Overcast
3:53 AM 37.0 °F 27.4 °F 28.9 °F 73% 29.78 in 10.0 mi WNW 17.3 mph 31.1 mph N/A   Mostly Cloudy
4:43 AM 35.6 °F 25.9 °F 28.4 °F 75% 29.79 in 10.0 mi NW 16.1 mph 27.6 mph N/A   Scattered Clouds
4:53 AM 36.0 °F 27.5 °F 28.0 °F 73% 29.80 in 10.0 mi WNW 12.7 mph 24.2 mph N/A   Partly Cloudy
5:53 AM 35.1 °F 25.5 °F 28.0 °F 76% 29.83 in 10.0 mi WNW 15.0 mph - N/A   Clear
6:53 AM 34.0 °F 25.0 °F 28.0 °F 79% 29.85 in 10.0 mi WNW 12.7 mph - N/A   Partly Cloudy
7:34 AM 35.6 °F 27.1 °F 28.4 °F 75% 29.85 in 10.0 mi WNW 12.7 mph - N/A   Mostly Cloudy
7:53 AM 35.1 °F 25.5 °F 28.0 °F 76% 29.87 in 10.0 mi WNW 15.0 mph - N/A   Overcast
8:15 AM 35.6 °F 25.5 °F 28.4 °F 75% 29.86 in 10.0 mi NW 17.3 mph 21.9 mph N/A   Scattered Clouds
8:53 AM 37.9 °F 29.6 °F 28.0 °F 68% 29.88 in 10.0 mi NW 13.8 mph 23.0 mph N/A   Clear
9:53 AM 42.1 °F 34.2 °F 28.9 °F 60% 29.89 in 10.0 mi NW 16.1 mph 21.9 mph N/A   Clear
10:53 AM 46.9 °F - 30.0 °F 52% 29.90 in 10.0 mi NNW 12.7 mph - N/A   Clear
11:53 AM 50.0 °F - 28.9 °F 44% 29.91 in 10.0 mi NNW 9.2 mph - 0.00 in Rain Light Rain
12:53 PM 52.0 °F - 30.0 °F 43% 29.88 in 10.0 mi WNW 10.4 mph 17.3 mph 0.00 in Rain Light Rain
1:53 PM 53.1 °F - 30.0 °F 41% 29.84 in 10.0 mi Variable 5.8 mph - 0.00 in   Clear
2:53 PM 55.0 °F - 30.0 °F 38% 29.83 in 10.0 mi West 10.4 mph - 0.00 in   Clear
3:53 PM 55.9 °F - 27.0 °F 33% 29.82 in 10.0 mi WNW 9.2 mph - N/A   Clear
4:53 PM 55.9 °F - 27.0 °F 33% 29.82 in 10.0 mi WNW 5.8 mph - N/A   Clear
5:53 PM 54.0 °F - 28.0 °F 37% 29.82 in 10.0 mi WNW 4.6 mph - N/A   Clear
6:53 PM 51.1 °F - 27.0 °F 39% 29.83 in 10.0 mi Calm Calm - N/A   Clear
7:53 PM 48.0 °F - 27.0 °F 44% 29.84 in 10.0 mi Calm Calm - N/A   Clear
8:53 PM 43.0 °F 39.5 °F 28.9 °F 58% 29.86 in 10.0 mi ENE 5.8 mph - N/A   Clear
9:53 PM 43.0 °F 39.5 °F 28.0 °F 56% 29.86 in 10.0 mi ENE 5.8 mph - N/A   Clear
10:53 PM 42.1 °F 37.7 °F 28.9 °F 60% 29.84 in 10.0 mi ESE 6.9 mph - N/A   Clear
11:53 PM 37.0 °F - 28.9 °F 73% 29.87 in 10.0 mi Calm Calm - N/A   Clear